Time,TemperatureF,DewpointF,PressureIn,WindDirection,WindDirectionDegrees,WindSpeedMPH,WindSpeedGustMPH,Humidity,HourlyPrecipIn,Conditions,Clouds,dailyrainin,SoftwareType,DateUTC
2013-02-18 00:00:00,24.7,19.7,30.38,West,271,0.0,0.0,81,0.00,,---,0.00,VWS V14.01,2013-02-18 05:00:00,
2013-02-18 00:05:00,24.7,19.7,30.38,West,271,0.0,0.0,81,0.00,,---,0.00,VWS V14.01,2013-02-18 05:05:00,
2013-02-18 00:10:00,24.6,19.6,30.38,West,271,0.0,0.0,81,0.00,,---,0.00,VWS V14.01,2013-02-18 05:10:00,
2013-02-18 00:15:00,24.5,19.5,30.38,West,271,0.0,0.0,81,0.00,,---,0.00,VWS V14.01,2013-02-18 05:15:00,
2013-02-18 00:20:00,24.4,19.4,30.38,West,271,0.0,0.0,81,0.00,,---,0.00,VWS V14.01,2013-02-18 05:20:00,
2013-02-18 00:25:00,24.3,19.3,30.39,West,271,0.0,0.0,81,0.00,,---,0.00,VWS V14.01,2013-02-18 05:25:00,
2013-02-18 00:30:00,24.1,19.4,30.39,West,271,0.0,0.0,82,0.00,,---,0.00,VWS V14.01,2013-02-18 05:30:00,
2013-02-18 00:35:00,24.0,19.3,30.39,West,271,0.0,0.0,82,0.00,,---,0.00,VWS V14.01,2013-02-18 05:35:00,
2013-02-18 00:40:00,23.9,19.2,30.39,West,271,0.0,0.0,82,0.00,,---,0.00,VWS V14.01,2013-02-18 05:40:00,
2013-02-18 00:45:00,23.8,19.1,30.39,West,271,0.0,0.0,82,0.00,,---,0.00,VWS V14.01,2013-02-18 05:45:00,
2013-02-18 00:50:00,23.8,19.4,30.39,West,271,0.0,0.0,83,0.00,,---,0.00,VWS V14.01,2013-02-18 05:50:00,
2013-02-18 00:55:00,23.8,19.4,30.39,West,271,0.0,0.0,83,0.00,,---,0.00,VWS V14.01,2013-02-18 05:55:00,
2013-02-18 01:00:00,23.7,19.3,30.39,West,271,0.0,0.0,83,0.00,,---,0.00,VWS V14.01,2013-02-18 06:00:00,
2013-02-18 01:05:00,23.7,19.3,30.39,West,271,0.0,0.0,83,0.00,,---,0.00,VWS V14.01,2013-02-18 06:05:00,
2013-02-18 01:10:00,23.5,19.1,30.39,West,271,0.0,0.0,83,0.00,,---,0.00,VWS V14.01,2013-02-18 06:10:00,
2013-02-18 01:15:00,23.4,19.0,30.39,West,271,0.0,0.0,83,0.00,,---,0.00,VWS V14.01,2013-02-18 06:15:00,
2013-02-18 01:20:00,23.4,19.3,30.39,West,271,0.0,0.0,84,0.00,,---,0.00,VWS V14.01,2013-02-18 06:20:00,
2013-02-18 01:25:00,23.4,19.0,30.39,West,271,0.0,0.0,83,0.00,,---,0.00,VWS V14.01,2013-02-18 06:25:00,
2013-02-18 01:30:00,23.3,19.2,30.39,West,271,0.0,0.0,84,0.00,,---,0.00,VWS V14.01,2013-02-18 06:30:00,
2013-02-18 01:35:00,23.3,19.2,30.39,West,271,0.0,0.0,84,0.00,,---,0.00,VWS V14.01,2013-02-18 06:35:00,
2013-02-18 01:40:00,23.2,19.1,30.39,West,271,0.0,0.0,84,0.00,,---,0.00,VWS V14.01,2013-02-18 06:40:00,
2013-02-18 01:45:00,23.1,19.0,30.39,West,271,0.0,0.0,84,0.00,,---,0.00,VWS V14.01,2013-02-18 06:45:00,
2013-02-18 01:50:00,23.0,18.9,30.39,West,271,0.0,0.0,84,0.00,,---,0.00,VWS V14.01,2013-02-18 06:50:00,
2013-02-18 01:55:00,22.9,18.8,30.39,West,271,0.0,0.0,84,0.00,,---,0.00,VWS V14.01,2013-02-18 06:55:00,
2013-02-18 02:00:00,22.9,18.8,30.39,West,271,0.0,0.0,84,0.00,,---,0.00,VWS V14.01,2013-02-18 07:00:00,
2013-02-18 02:05:00,22.9,18.8,30.39,West,271,0.0,0.0,84,0.00,,---,0.00,VWS V14.01,2013-02-18 07:05:00,
2013-02-18 02:10:00,22.8,18.7,30.39,West,271,0.0,0.0,84,0.00,,---,0.00,VWS V14.01,2013-02-18 07:10:00,
2013-02-18 02:15:00,22.7,18.6,30.39,West,271,0.0,0.0,84,0.00,,---,0.00,VWS V14.01,2013-02-18 07:15:00,
2013-02-18 02:20:00,22.6,18.5,30.39,West,271,0.0,0.0,84,0.00,,---,0.00,VWS V14.01,2013-02-18 07:20:00,
2013-02-18 02:25:00,22.4,18.6,30.40,West,271,0.0,0.0,85,0.00,,---,0.00,VWS V14.01,2013-02-18 07:25:00,
2013-02-18 02:30:00,22.3,18.5,30.40,West,271,0.0,0.0,85,0.00,,---,0.00,VWS V14.01,2013-02-18 07:30:00,
2013-02-18 02:35:00,22.2,18.4,30.40,West,271,0.0,0.0,85,0.00,,---,0.00,VWS V14.01,2013-02-18 07:35:00,
2013-02-18 02:40:00,22.1,18.3,30.40,West,271,0.0,0.0,85,0.00,,---,0.00,VWS V14.01,2013-02-18 07:40:00,
2013-02-18 02:45:00,22.3,18.8,30.40,West,271,0.0,0.0,86,0.00,,---,0.00,VWS V14.01,2013-02-18 07:45:00,
2013-02-18 02:50:00,22.4,18.9,30.40,West,271,0.0,0.0,86,0.00,,---,0.00,VWS V14.01,2013-02-18 07:50:00,
2013-02-18 02:55:00,22.4,18.9,30.40,West,271,0.0,0.0,86,0.00,,---,0.00,VWS V14.01,2013-02-18 07:55:00,
2013-02-18 03:00:00,22.4,18.9,30.40,West,271,0.0,0.0,86,0.00,,---,0.00,VWS V14.01,2013-02-18 08:00:00,
2013-02-18 03:05:00,22.4,19.1,30.40,West,271,0.0,0.0,87,0.00,,---,0.00,VWS V14.01,2013-02-18 08:05:00,
2013-02-18 03:10:00,22.5,19.2,30.40,West,271,0.0,0.0,87,0.00,,---,0.00,VWS V14.01,2013-02-18 08:10:00,
2013-02-18 03:15:00,22.5,19.2,30.40,West,271,0.0,0.0,87,0.00,,---,0.00,VWS V14.01,2013-02-18 08:15:00,
2013-02-18 03:20:00,22.5,19.2,30.40,West,271,0.0,0.0,87,0.00,,---,0.00,VWS V14.01,2013-02-18 08:20:00,
2013-02-18 03:25:00,22.4,19.1,30.40,West,271,0.0,0.0,87,0.00,,---,0.00,VWS V14.01,2013-02-18 08:25:00,
2013-02-18 03:30:00,22.3,19.0,30.40,West,271,0.0,0.0,87,0.00,,---,0.00,VWS V14.01,2013-02-18 08:30:00,
2013-02-18 03:35:00,22.2,18.9,30.40,West,271,0.0,0.0,87,0.00,,---,0.00,VWS V14.01,2013-02-18 08:35:00,
2013-02-18 03:40:00,22.2,18.9,30.40,West,271,0.0,0.0,87,0.00,,---,0.00,VWS V14.01,2013-02-18 08:40:00,
2013-02-18 03:45:00,22.2,18.9,30.40,West,271,0.0,0.0,87,0.00,,---,0.00,VWS V14.01,2013-02-18 08:45:00,
2013-02-18 03:50:00,22.2,19.2,30.40,West,271,0.0,0.0,88,0.00,,---,0.00,VWS V14.01,2013-02-18 08:50:00,
2013-02-18 03:55:00,22.2,19.2,30.40,West,271,0.0,0.0,88,0.00,,---,0.00,VWS V14.01,2013-02-18 08:55:00,
2013-02-18 04:00:00,22.1,18.8,30.40,West,271,0.0,0.0,87,0.00,,---,0.00,VWS V14.01,2013-02-18 09:00:00,
2013-02-18 04:05:00,22.1,18.8,30.40,West,271,0.0,0.0,87,0.00,,---,0.00,VWS V14.01,2013-02-18 09:05:00,
2013-02-18 04:10:00,22.0,18.7,30.40,West,271,0.0,0.0,87,0.00,,---,0.00,VWS V14.01,2013-02-18 09:10:00,
2013-02-18 04:15:00,21.8,18.5,30.40,West,271,0.0,0.0,87,0.00,,---,0.00,VWS V14.01,2013-02-18 09:15:00,
2013-02-18 04:20:00,21.7,18.4,30.40,West,271,0.0,0.0,87,0.00,,---,0.00,VWS V14.01,2013-02-18 09:20:00,
2013-02-18 04:25:00,21.6,18.3,30.40,West,271,0.0,0.0,87,0.00,,---,0.00,VWS V14.01,2013-02-18 09:25:00,
2013-02-18 04:30:00,21.5,18.2,30.40,West,271,0.0,0.0,87,0.00,,---,0.00,VWS V14.01,2013-02-18 09:30:00,
2013-02-18 04:35:00,21.5,18.2,30.40,West,271,0.0,0.0,87,0.00,,---,0.00,VWS V14.01,2013-02-18 09:35:00,
2013-02-18 04:40:00,21.5,18.5,30.40,West,271,0.0,0.0,88,0.00,,---,0.00,VWS V14.01,2013-02-18 09:40:00,
2013-02-18 04:45:00,21.5,18.5,30.41,West,271,0.0,0.0,88,0.00,,---,0.00,VWS V14.01,2013-02-18 09:45:00,
2013-02-18 04:50:00,21.3,18.3,30.41,West,271,0.0,0.0,88,0.00,,---,0.00,VWS V14.01,2013-02-18 09:50:00,
2013-02-18 04:55:00,21.3,18.3,30.41,West,271,0.0,0.0,88,0.00,,---,0.00,VWS V14.01,2013-02-18 09:55:00,
2013-02-18 05:00:00,21.2,18.2,30.41,West,271,0.0,0.0,88,0.00,,---,0.00,VWS V14.01,2013-02-18 10:00:00,
2013-02-18 05:05:00,21.2,18.2,30.42,West,271,0.0,0.0,88,0.00,,---,0.00,VWS V14.01,2013-02-18 10:05:00,
2013-02-18 05:10:00,21.2,18.2,30.41,West,271,0.0,0.0,88,0.00,,---,0.00,VWS V14.01,2013-02-18 10:10:00,
2013-02-18 05:15:00,21.2,18.2,30.42,West,271,0.0,0.0,88,0.00,,---,0.00,VWS V14.01,2013-02-18 10:15:00,
2013-02-18 05:20:00,21.1,18.1,30.42,West,271,0.0,0.0,88,0.00,,---,0.00,VWS V14.01,2013-02-18 10:20:00,
2013-02-18 05:25:00,21.1,18.1,30.42,West,271,0.0,0.0,88,0.00,,---,0.00,VWS V14.01,2013-02-18 10:25:00,
2013-02-18 05:30:00,21.0,18.0,30.42,West,271,0.0,0.0,88,0.00,,---,0.00,VWS V14.01,2013-02-18 10:30:00,
2013-02-18 05:35:00,20.9,18.2,30.42,West,271,0.0,0.0,89,0.00,,---,0.00,VWS V14.01,2013-02-18 10:35:00,
2013-02-18 05:40:00,20.9,18.2,30.42,West,271,0.0,0.0,89,0.00,,---,0.00,VWS V14.01,2013-02-18 10:40:00,
2013-02-18 05:45:00,20.9,18.2,30.42,West,271,0.0,0.0,89,0.00,,---,0.00,VWS V14.01,2013-02-18 10:45:00,
2013-02-18 05:50:00,20.8,18.1,30.42,West,271,0.0,0.0,89,0.00,,---,0.00,VWS V14.01,2013-02-18 10:50:00,
2013-02-18 05:55:00,20.8,18.1,30.42,West,271,0.0,0.0,89,0.00,,---,0.00,VWS V14.01,2013-02-18 10:55:00,
2013-02-18 06:00:00,20.8,18.1,30.42,West,271,0.0,0.0,89,0.00,,---,0.00,VWS V14.01,2013-02-18 11:00:00,
2013-02-18 06:05:00,20.7,18.0,30.43,West,271,0.0,0.0,89,0.00,,---,0.00,VWS V14.01,2013-02-18 11:05:00,
2013-02-18 06:10:00,20.6,17.9,30.43,West,271,0.0,0.0,89,0.00,,---,0.00,VWS V14.01,2013-02-18 11:10:00,
2013-02-18 06:15:00,20.6,17.9,30.43,West,271,0.0,0.0,89,0.00,,---,0.00,VWS V14.01,2013-02-18 11:15:00,
2013-02-18 06:20:00,20.5,17.8,30.43,West,271,0.0,0.0,89,0.00,,---,0.00,VWS V14.01,2013-02-18 11:20:00,
2013-02-18 06:25:00,20.4,17.7,30.43,West,271,0.0,0.0,89,0.00,,---,0.00,VWS V14.01,2013-02-18 11:25:00,
2013-02-18 06:30:00,20.3,17.6,30.43,West,271,0.0,0.0,89,0.00,,---,0.00,VWS V14.01,2013-02-18 11:30:00,
2013-02-18 06:35:00,20.3,17.6,30.43,West,271,0.0,0.0,89,0.00,,---,0.00,VWS V14.01,2013-02-18 11:35:00,
2013-02-18 06:40:00,20.2,17.5,30.44,West,271,0.0,0.0,89,0.00,,---,0.00,VWS V14.01,2013-02-18 11:40:00,
2013-02-18 06:45:00,20.1,17.6,30.43,West,271,0.0,0.0,90,0.00,,---,0.00,VWS V14.01,2013-02-18 11:45:00,
2013-02-18 06:50:00,20.2,17.7,30.43,West,271,0.0,0.0,90,0.00,,---,0.00,VWS V14.01,2013-02-18 11:50:00,
2013-02-18 06:55:00,20.2,17.7,30.44,West,271,0.0,0.0,90,0.00,,---,0.00,VWS V14.01,2013-02-18 11:55:00,
2013-02-18 07:00:00,20.2,17.7,30.43,West,271,0.0,0.0,90,0.00,,---,0.00,VWS V14.01,2013-02-18 12:00:00,
2013-02-18 07:05:00,20.1,17.6,30.45,West,271,0.0,0.0,90,0.00,,---,0.00,VWS V14.01,2013-02-18 12:05:00,
2013-02-18 07:10:00,20.1,17.6,30.45,West,271,0.0,0.0,90,0.00,,---,0.00,VWS V14.01,2013-02-18 12:10:00,
2013-02-18 07:15:00,20.1,17.6,30.45,West,271,0.0,0.0,90,0.00,,---,0.00,VWS V14.01,2013-02-18 12:15:00,
2013-02-18 07:20:00,20.1,17.6,30.45,West,271,0.0,0.0,90,0.00,,---,0.00,VWS V14.01,2013-02-18 12:20:00,
2013-02-18 07:25:00,20.0,17.5,30.45,West,271,0.0,0.0,90,0.00,,---,0.00,VWS V14.01,2013-02-18 12:25:00,
2013-02-18 07:30:00,20.1,17.6,30.45,West,271,0.0,0.0,90,0.00,,---,0.00,VWS V14.01,2013-02-18 12:30:00,
2013-02-18 07:35:00,20.1,17.9,30.46,West,271,0.0,0.0,91,0.00,,---,0.00,VWS V14.01,2013-02-18 12:35:00,
2013-02-18 07:40:00,20.2,17.7,30.46,West,271,0.0,0.0,90,0.00,,---,0.00,VWS V14.01,2013-02-18 12:40:00,
2013-02-18 07:45:00,20.2,18.0,30.46,West,271,0.0,0.0,91,0.00,,---,0.00,VWS V14.01,2013-02-18 12:45:00,
2013-02-18 07:50:00,20.4,18.2,30.46,West,271,0.0,0.0,91,0.00,,---,0.00,VWS V14.01,2013-02-18 12:50:00,
2013-02-18 07:55:00,20.7,18.5,30.46,West,271,0.0,0.0,91,0.00,,---,0.00,VWS V14.01,2013-02-18 12:55:00,
2013-02-18 08:00:00,21.3,19.1,30.46,West,271,0.0,0.0,91,0.00,,---,0.00,VWS V14.01,2013-02-18 13:00:00,
2013-02-18 08:05:00,22.1,20.1,30.46,West,271,0.0,0.0,92,0.00,,---,0.00,VWS V14.01,2013-02-18 13:05:00,
2013-02-18 08:10:00,22.6,20.6,30.46,West,271,0.0,0.0,92,0.00,,---,0.00,VWS V14.01,2013-02-18 13:10:00,
2013-02-18 08:15:00,23.7,21.7,30.47,West,271,0.0,0.0,92,0.00,,---,0.00,VWS V14.01,2013-02-18 13:15:00,
2013-02-18 08:20:00,25.4,25.4,30.47,West,271,0.0,0.0,100,0.00,,---,0.00,VWS V14.01,2013-02-18 13:20:00,
2013-02-18 08:25:00,26.5,24.2,30.47,West,271,0.0,0.0,91,0.00,,---,0.00,VWS V14.01,2013-02-18 13:25:00,
2013-02-18 08:30:00,27.8,25.2,30.47,West,271,0.0,0.0,90,0.00,,---,0.00,VWS V14.01,2013-02-18 13:30:00,
2013-02-18 08:35:00,28.7,25.9,30.47,West,271,0.0,0.0,89,0.00,,---,0.00,VWS V14.01,2013-02-18 13:35:00,
2013-02-18 08:40:00,29.5,26.4,30.47,West,271,0.0,0.0,88,0.00,,---,0.00,VWS V14.01,2013-02-18 13:40:00,
2013-02-18 08:45:00,30.9,27.2,30.47,West,271,0.0,0.0,86,0.00,,---,0.00,VWS V14.01,2013-02-18 13:45:00,
2013-02-18 08:50:00,31.5,27.2,30.47,West,271,0.0,0.0,84,0.00,,---,0.00,VWS V14.01,2013-02-18 13:50:00,
2013-02-18 08:55:00,32.4,28.1,30.47,West,271,0.0,0.0,84,0.00,,---,0.00,VWS V14.01,2013-02-18 13:55:00,
2013-02-18 09:00:00,34.1,28.6,30.47,West,271,0.0,0.0,80,0.00,,---,0.00,VWS V14.01,2013-02-18 14:00:00,
2013-02-18 09:05:00,35.0,27.6,30.47,West,271,0.0,0.0,74,0.00,,---,0.00,VWS V14.01,2013-02-18 14:05:00,
2013-02-18 09:10:00,35.4,26.6,30.47,West,271,0.0,0.0,70,0.00,,---,0.00,VWS V14.01,2013-02-18 14:10:00,
2013-02-18 09:15:00,36.5,26.6,30.47,West,271,0.0,0.0,67,0.00,,---,0.00,VWS V14.01,2013-02-18 14:15:00,
2013-02-18 09:20:00,37.5,27.2,30.47,West,271,0.0,0.0,66,0.00,,---,0.00,VWS V14.01,2013-02-18 14:20:00,
2013-02-18 09:25:00,38.0,26.5,30.47,West,271,0.0,0.0,63,0.00,,---,0.00,VWS V14.01,2013-02-18 14:25:00,
2013-02-18 09:30:00,39.0,25.5,30.47,West,271,0.0,0.0,58,0.00,,---,0.00,VWS V14.01,2013-02-18 14:30:00,
2013-02-18 09:35:00,40.1,25.2,30.47,West,271,0.0,0.0,55,0.00,,---,0.00,VWS V14.01,2013-02-18 14:35:00,
2013-02-18 09:40:00,40.7,24.9,30.47,West,271,0.0,0.0,53,0.00,,---,0.00,VWS V14.01,2013-02-18 14:40:00,
2013-02-18 09:45:00,41.1,26.6,30.47,West,271,0.0,0.0,56,0.00,,---,0.00,VWS V14.01,2013-02-18 14:45:00,
2013-02-18 09:50:00,41.7,25.9,30.47,South,186,0.0,0.0,53,0.00,,---,0.00,VWS V14.01,2013-02-18 14:50:00,
2013-02-18 09:55:00,42.5,27.0,30.47,South,186,0.0,1.0,54,0.00,,---,0.00,VWS V14.01,2013-02-18 14:55:00,
2013-02-18 10:00:00,43.4,27.0,30.47,South,186,0.0,0.0,52,0.00,,---,0.00,VWS V14.01,2013-02-18 15:00:00,
2013-02-18 10:05:00,43.8,26.4,30.46,South,180,0.0,1.0,50,0.00,,---,0.00,VWS V14.01,2013-02-18 15:05:00,
2013-02-18 10:10:00,43.8,25.9,30.47,South,180,0.0,1.0,49,0.00,,---,0.00,VWS V14.01,2013-02-18 15:10:00,
2013-02-18 10:15:00,44.2,25.8,30.47,South,180,0.0,1.0,48,0.00,,---,0.00,VWS V14.01,2013-02-18 15:15:00,
2013-02-18 10:20:00,44.6,26.1,30.47,South,180,0.0,0.0,48,0.00,,---,0.00,VWS V14.01,2013-02-18 15:20:00,
2013-02-18 10:25:00,44.9,25.4,30.46,South,179,0.0,2.0,46,0.00,,---,0.00,VWS V14.01,2013-02-18 15:25:00,
2013-02-18 10:30:00,45.0,25.0,30.46,South,179,0.0,1.0,45,0.00,,---,0.00,VWS V14.01,2013-02-18 15:30:00,
2013-02-18 10:35:00,45.4,25.9,30.46,South,179,0.0,1.0,46,0.00,,---,0.00,VWS V14.01,2013-02-18 15:35:00,
2013-02-18 10:40:00,46.0,25.9,30.46,South,176,0.0,1.0,45,0.00,,---,0.00,VWS V14.01,2013-02-18 15:40:00,
2013-02-18 10:45:00,46.8,26.0,30.46,SSE,157,1.0,4.0,44,0.00,,---,0.00,VWS V14.01,2013-02-18 15:45:00,
2013-02-18 10:50:00,47.1,25.2,30.45,SSE,158,0.0,2.0,42,0.00,,---,0.00,VWS V14.01,2013-02-18 15:50:00,
2013-02-18 10:55:00,47.4,25.5,30.46,South,169,0.0,1.0,42,0.00,,---,0.00,VWS V14.01,2013-02-18 15:55:00,
2013-02-18 11:00:00,47.7,24.6,30.45,West,276,0.0,7.0,40,0.00,,---,0.00,VWS V14.01,2013-02-18 16:00:00,
2013-02-18 11:05:00,47.6,25.1,30.45,WSW,256,0.0,5.0,41,0.00,,---,0.00,VWS V14.01,2013-02-18 16:05:00,
2013-02-18 11:10:00,48.0,25.4,30.45,West,277,0.0,6.0,41,0.00,,---,0.00,VWS V14.01,2013-02-18 16:10:00,
2013-02-18 11:15:00,48.7,25.5,30.45,WSW,242,0.0,5.0,40,0.00,,---,0.00,VWS V14.01,2013-02-18 16:15:00,
2013-02-18 11:21:00,49.5,26.8,30.45,SSE,157,0.0,4.0,41,0.00,,---,0.00,VWS V14.01,2013-02-18 16:21:00,
2013-02-18 11:26:00,49.7,26.4,30.45,WSW,244,6.0,6.0,40,0.00,,---,0.00,VWS V14.01,2013-02-18 16:26:00,
2013-02-18 11:31:00,49.8,27.1,30.45,WSW,246,0.0,6.0,41,0.00,,---,0.00,VWS V14.01,2013-02-18 16:31:00,
2013-02-18 11:36:00,50.2,26.2,30.45,West,269,1.0,8.0,39,0.00,,---,0.00,VWS V14.01,2013-02-18 16:36:00,
2013-02-18 11:41:00,50.5,25.9,30.44,SE,141,0.0,9.0,38,0.00,,---,0.00,VWS V14.01,2013-02-18 16:41:00,
2013-02-18 11:46:00,50.8,26.8,30.44,West,265,0.0,6.0,39,0.00,,---,0.00,VWS V14.01,2013-02-18 16:46:00,
2013-02-18 11:51:00,51.1,27.0,30.43,SSW,198,0.0,6.0,39,0.00,,---,0.00,VWS V14.01,2013-02-18 16:51:00,
2013-02-18 11:56:00,51.7,26.9,30.43,SSE,148,2.0,5.0,38,0.00,,---,0.00,VWS V14.01,2013-02-18 16:56:00,
2013-02-18 12:01:00,52.4,27.6,30.42,SW,221,1.0,2.0,38,0.00,,---,0.00,VWS V14.01,2013-02-18 17:01:00,
2013-02-18 12:06:00,53.0,26.8,30.42,East,96,2.0,9.0,36,0.00,,---,0.00,VWS V14.01,2013-02-18 17:06:00,
2013-02-18 12:11:00,53.2,27.0,30.42,South,180,0.0,9.0,36,0.00,,---,0.00,VWS V14.01,2013-02-18 17:11:00,
2013-02-18 12:16:00,53.3,26.4,30.42,SSE,163,2.0,8.0,35,0.00,,---,0.00,VWS V14.01,2013-02-18 17:16:00,
2013-02-18 12:21:00,53.5,27.2,30.42,SSE,159,4.0,7.0,36,0.00,,---,0.00,VWS V14.01,2013-02-18 17:21:00,
2013-02-18 12:26:00,53.5,27.2,30.41,East,79,0.0,6.0,36,0.00,,---,0.00,VWS V14.01,2013-02-18 17:26:00,
2013-02-18 12:31:00,53.5,27.9,30.41,South,175,1.0,8.0,37,0.00,,---,0.00,VWS V14.01,2013-02-18 17:31:00,
2013-02-18 12:36:00,53.7,27.4,30.41,South,169,1.0,7.0,36,0.00,,---,0.00,VWS V14.01,2013-02-18 17:36:00,
2013-02-18 12:41:00,53.6,27.3,30.41,SSE,155,2.0,8.0,36,0.00,,---,0.00,VWS V14.01,2013-02-18 17:41:00,
2013-02-18 12:46:00,53.7,27.4,30.40,West,276,1.0,10.0,36,0.00,,---,0.00,VWS V14.01,2013-02-18 17:46:00,
2013-02-18 12:51:00,54.2,27.2,30.40,SSE,157,0.0,5.0,35,0.00,,---,0.00,VWS V14.01,2013-02-18 17:51:00,
2013-02-18 12:56:00,55.1,28.6,30.39,SSE,154,6.0,7.0,36,0.00,,---,0.00,VWS V14.01,2013-02-18 17:56:00,
2013-02-18 13:01:00,55.2,28.0,30.39,SW,215,0.0,7.0,35,0.00,,---,0.00,VWS V14.01,2013-02-18 18:01:00,
2013-02-18 13:06:00,55.5,27.6,30.38,East,100,0.0,6.0,34,0.00,,---,0.00,VWS V14.01,2013-02-18 18:06:00,
2013-02-18 13:11:00,55.0,27.9,30.38,South,180,6.0,9.0,35,0.00,,---,0.00,VWS V14.01,2013-02-18 18:11:00,
2013-02-18 13:16:00,55.2,28.0,30.38,ESE,118,0.0,8.0,35,0.00,,---,0.00,VWS V14.01,2013-02-18 18:16:00,
2013-02-18 13:21:00,55.6,29.1,30.38,SSE,167,0.0,8.0,36,0.00,,---,0.00,VWS V14.01,2013-02-18 18:21:00,
2013-02-18 13:26:00,56.0,28.8,30.37,West,275,1.0,6.0,35,0.00,,---,0.00,VWS V14.01,2013-02-18 18:26:00,
2013-02-18 13:31:00,55.7,28.5,30.37,ESE,123,7.0,8.0,35,0.00,,---,0.00,VWS V14.01,2013-02-18 18:31:00,
2013-02-18 13:36:00,55.8,29.3,30.37,ESE,119,6.0,11.0,36,0.00,,---,0.00,VWS V14.01,2013-02-18 18:36:00,
2013-02-18 13:41:00,55.7,29.2,30.36,SE,144,1.0,7.0,36,0.00,,---,0.00,VWS V14.01,2013-02-18 18:41:00,
2013-02-18 13:46:00,56.2,29.6,30.36,SE,138,7.0,9.0,36,0.00,,---,0.00,VWS V14.01,2013-02-18 18:46:00,
2013-02-18 13:51:00,55.7,28.5,30.36,WSW,250,1.0,8.0,35,0.00,,---,0.00,VWS V14.01,2013-02-18 18:51:00,
2013-02-18 13:56:00,55.6,29.1,30.36,SSE,149,4.0,6.0,36,0.00,,---,0.00,VWS V14.01,2013-02-18 18:56:00,
2013-02-18 14:01:00,55.8,29.9,30.35,SE,136,0.0,9.0,37,0.00,,---,0.00,VWS V14.01,2013-02-18 19:01:00,
2013-02-18 14:06:00,56.1,29.5,30.35,SE,139,4.0,9.0,36,0.00,,---,0.00,VWS V14.01,2013-02-18 19:06:00,
2013-02-18 14:11:00,56.2,28.9,30.35,SE,126,1.0,7.0,35,0.00,,---,0.00,VWS V14.01,2013-02-18 19:11:00,
2013-02-18 14:16:00,56.4,29.8,30.35,SSE,163,1.0,6.0,36,0.00,,---,0.00,VWS V14.01,2013-02-18 19:16:00,
2013-02-18 14:21:00,56.6,30.0,30.34,South,184,1.0,9.0,36,0.00,,---,0.00,VWS V14.01,2013-02-18 19:21:00,
2013-02-18 14:26:00,56.9,30.2,30.34,SSE,151,3.0,7.0,36,0.00,,---,0.00,VWS V14.01,2013-02-18 19:26:00,
2013-02-18 14:31:00,57.0,30.3,30.34,West,281,0.0,6.0,36,0.00,,---,0.00,VWS V14.01,2013-02-18 19:31:00,
2013-02-18 14:36:00,57.3,29.9,30.34,SSE,155,1.0,4.0,35,0.00,,---,0.00,VWS V14.01,2013-02-18 19:36:00,
2013-02-18 14:41:00,57.2,30.5,30.34,ESE,121,8.0,11.0,36,0.00,,---,0.00,VWS V14.01,2013-02-18 19:41:00,
2013-02-18 14:46:00,57.1,29.7,30.33,SSE,167,1.0,10.0,35,0.00,,---,0.00,VWS V14.01,2013-02-18 19:46:00,
2013-02-18 14:51:00,57.7,29.5,30.33,West,280,0.0,7.0,34,0.00,,---,0.00,VWS V14.01,2013-02-18 19:51:00,
2013-02-18 14:56:00,57.5,29.4,30.33,SE,138,5.0,10.0,34,0.00,,---,0.00,VWS V14.01,2013-02-18 19:56:00,
2013-02-18 15:01:00,57.0,28.9,30.33,SE,142,4.0,8.0,34,0.00,,---,0.00,VWS V14.01,2013-02-18 20:01:00,
2013-02-18 15:06:00,57.2,29.1,30.33,SE,131,6.0,9.0,34,0.00,,---,0.00,VWS V14.01,2013-02-18 20:06:00,
2013-02-18 15:11:00,57.0,29.6,30.33,SSE,164,7.0,9.0,35,0.00,,---,0.00,VWS V14.01,2013-02-18 20:11:00,
2013-02-18 15:16:00,57.0,29.6,30.33,SE,140,5.0,10.0,35,0.00,,---,0.00,VWS V14.01,2013-02-18 20:16:00,
2013-02-18 15:21:00,57.1,29.7,30.32,SE,132,5.0,8.0,35,0.00,,---,0.00,VWS V14.01,2013-02-18 20:21:00,
2013-02-18 15:26:00,57.1,29.7,30.32,SSE,147,3.0,9.0,35,0.00,,---,0.00,VWS V14.01,2013-02-18 20:26:00,
2013-02-18 15:31:00,57.4,30.0,30.32,WSW,239,4.0,9.0,35,0.00,,---,0.00,VWS V14.01,2013-02-18 20:31:00,
2013-02-18 15:36:00,57.3,29.9,30.32,SE,140,3.0,8.0,35,0.00,,---,0.00,VWS V14.01,2013-02-18 20:36:00,
2013-02-18 15:41:00,57.5,30.1,30.32,South,191,1.0,6.0,35,0.00,,---,0.00,VWS V14.01,2013-02-18 20:41:00,
2013-02-18 15:46:00,57.6,30.9,30.31,SE,126,3.0,8.0,36,0.00,,---,0.00,VWS V14.01,2013-02-18 20:46:00,
2013-02-18 15:51:00,57.5,30.1,30.31,SE,138,3.0,8.0,35,0.00,,---,0.00,VWS V14.01,2013-02-18 20:51:00,
2013-02-18 15:56:00,57.1,30.4,30.31,SSE,164,0.0,10.0,36,0.00,,---,0.00,VWS V14.01,2013-02-18 20:56:00,
2013-02-18 16:01:00,57.0,29.6,30.32,SSW,200,0.0,9.0,35,0.00,,---,0.00,VWS V14.01,2013-02-18 21:01:00,
2013-02-18 16:06:00,56.9,29.5,30.31,SSE,159,2.0,9.0,35,0.00,,---,0.00,VWS V14.01,2013-02-18 21:06:00,
2013-02-18 16:11:00,56.9,29.5,30.31,SE,139,0.0,9.0,35,0.00,,---,0.00,VWS V14.01,2013-02-18 21:11:00,
2013-02-18 16:16:00,57.2,30.5,30.31,South,173,0.0,6.0,36,0.00,,---,0.00,VWS V14.01,2013-02-18 21:16:00,
2013-02-18 16:21:00,57.0,29.6,30.31,SSE,151,2.0,13.0,35,0.00,,---,0.00,VWS V14.01,2013-02-18 21:21:00,
2013-02-18 16:26:00,57.0,30.3,30.31,SSE,148,6.0,7.0,36,0.00,,---,0.00,VWS V14.01,2013-02-18 21:26:00,
2013-02-18 16:31:00,56.9,29.5,30.31,SSE,156,5.0,6.0,35,0.00,,---,0.00,VWS V14.01,2013-02-18 21:31:00,
2013-02-18 16:36:00,56.7,30.1,30.31,SSE,153,1.0,10.0,36,0.00,,---,0.00,VWS V14.01,2013-02-18 21:36:00,
2013-02-18 16:41:00,56.8,30.1,30.30,SSE,168,1.0,6.0,36,0.00,,---,0.00,VWS V14.01,2013-02-18 21:41:00,
2013-02-18 16:46:00,56.7,30.1,30.30,SSE,150,6.0,10.0,36,0.00,,---,0.00,VWS V14.01,2013-02-18 21:46:00,
2013-02-18 16:51:00,56.3,29.7,30.30,SSE,164,0.0,7.0,36,0.00,,---,0.00,VWS V14.01,2013-02-18 21:51:00,
2013-02-18 16:56:00,56.2,30.3,30.30,South,191,5.0,12.0,37,0.00,,---,0.00,VWS V14.01,2013-02-18 21:56:00,
2013-02-18 17:01:00,56.0,30.1,30.30,SE,144,9.0,10.0,37,0.00,,---,0.00,VWS V14.01,2013-02-18 22:01:00,
2013-02-18 17:06:00,55.9,30.0,30.30,East,90,6.0,8.0,37,0.00,,---,0.00,VWS V14.01,2013-02-18 22:06:00,
2013-02-18 17:11:00,55.9,30.0,30.30,ESE,113,4.0,9.0,37,0.00,,---,0.00,VWS V14.01,2013-02-18 22:11:00,
2013-02-18 17:16:00,55.8,30.6,30.30,SE,140,6.0,8.0,38,0.00,,---,0.00,VWS V14.01,2013-02-18 22:16:00,
2013-02-18 17:21:00,55.7,30.5,30.30,SSW,200,0.0,6.0,38,0.00,,---,0.00,VWS V14.01,2013-02-18 22:21:00,
2013-02-18 17:26:00,55.5,30.3,30.30,SE,137,0.0,6.0,38,0.00,,---,0.00,VWS V14.01,2013-02-18 22:26:00,
2013-02-18 17:31:00,55.3,30.1,30.30,SE,134,2.0,7.0,38,0.00,,---,0.00,VWS V14.01,2013-02-18 22:31:00,
2013-02-18 17:36:00,55.1,30.0,30.30,WSW,249,2.0,7.0,38,0.00,,---,0.00,VWS V14.01,2013-02-18 22:36:00,
2013-02-18 17:41:00,54.8,30.3,30.30,SSE,167,4.0,8.0,39,0.00,,---,0.00,VWS V14.01,2013-02-18 22:41:00,
2013-02-18 17:46:00,54.6,30.2,30.30,SE,144,4.0,8.0,39,0.00,,---,0.00,VWS V14.01,2013-02-18 22:46:00,
2013-02-18 17:51:00,54.4,30.0,30.30,SE,128,7.0,8.0,39,0.00,,---,0.00,VWS V14.01,2013-02-18 22:51:00,
2013-02-18 17:56:00,54.2,29.8,30.30,SE,138,0.0,8.0,39,0.00,,---,0.00,VWS V14.01,2013-02-18 22:56:00,
2013-02-18 18:01:00,53.9,30.1,30.30,South,188,2.0,7.0,40,0.00,,---,0.00,VWS V14.01,2013-02-18 23:01:00,
2013-02-18 18:06:00,53.6,29.9,30.29,SE,136,3.0,6.0,40,0.00,,---,0.00,VWS V14.01,2013-02-18 23:06:00,
2013-02-18 18:11:00,53.3,30.2,30.30,SE,143,0.0,6.0,41,0.00,,---,0.00,VWS V14.01,2013-02-18 23:11:00,
2013-02-18 18:16:00,53.1,30.0,30.30,SSE,157,0.0,6.0,41,0.00,,---,0.00,VWS V14.01,2013-02-18 23:16:00,
2013-02-18 18:22:00,52.7,30.3,30.30,SSE,151,0.0,4.0,42,0.00,,---,0.00,VWS V14.01,2013-02-18 23:22:00,
2013-02-18 18:27:00,52.3,29.9,30.30,ESE,119,4.0,6.0,42,0.00,,---,0.00,VWS V14.01,2013-02-18 23:27:00,
2013-02-18 18:32:00,52.2,29.8,30.30,ENE,72,2.0,7.0,42,0.00,,---,0.00,VWS V14.01,2013-02-18 23:32:00,
2013-02-18 18:37:00,52.1,30.3,30.30,SSW,194,0.0,4.0,43,0.00,,---,0.00,VWS V14.01,2013-02-18 23:37:00,
2013-02-18 18:42:00,51.8,30.0,30.29,SE,125,3.0,5.0,43,0.00,,---,0.00,VWS V14.01,2013-02-18 23:42:00,
2013-02-18 18:47:00,51.6,29.9,30.29,SE,144,0.0,3.0,43,0.00,,---,0.00,VWS V14.01,2013-02-18 23:47:00,
2013-02-18 18:52:00,51.4,30.2,30.30,SSE,152,0.0,2.0,44,0.00,,---,0.00,VWS V14.01,2013-02-18 23:52:00,
2013-02-18 18:57:00,51.0,29.9,30.30,SSE,153,1.0,2.0,44,0.00,,---,0.00,VWS V14.01,2013-02-18 23:57:00,
2013-02-18 19:02:00,50.5,30.0,30.29,SSE,153,0.0,1.0,45,0.00,,---,0.00,VWS V14.01,2013-02-19 00:02:00,
2013-02-18 19:07:00,50.0,29.5,30.29,SSE,152,0.0,1.0,45,0.00,,---,0.00,VWS V14.01,2013-02-19 00:07:00,
2013-02-18 19:12:00,49.6,29.7,30.29,SSE,153,0.0,2.0,46,0.00,,---,0.00,VWS V14.01,2013-02-19 00:12:00,
2013-02-18 19:17:00,49.1,29.8,30.29,SSE,153,0.0,0.0,47,0.00,,---,0.00,VWS V14.01,2013-02-19 00:17:00,
2013-02-18 19:22:00,48.3,29.5,30.29,SSE,153,0.0,1.0,48,0.00,,---,0.00,VWS V14.01,2013-02-19 00:22:00,
2013-02-18 19:27:00,47.8,29.6,30.29,SSE,153,0.0,0.0,49,0.00,,---,0.00,VWS V14.01,2013-02-19 00:27:00,
2013-02-18 19:32:00,47.2,29.5,30.29,SSE,153,0.0,0.0,50,0.00,,---,0.00,VWS V14.01,2013-02-19 00:32:00,
2013-02-18 19:37:00,46.4,29.8,30.29,SSE,152,0.0,0.0,52,0.00,,---,0.00,VWS V14.01,2013-02-19 00:37:00,
2013-02-18 19:42:00,45.7,29.6,30.29,SSE,153,0.0,0.0,53,0.00,,---,0.00,VWS V14.01,2013-02-19 00:42:00,
2013-02-18 19:47:00,44.9,29.3,30.30,SSE,153,0.0,0.0,54,0.00,,---,0.00,VWS V14.01,2013-02-19 00:47:00,
2013-02-18 19:52:00,44.1,29.0,30.30,SSE,152,0.0,0.0,55,0.00,,---,0.00,VWS V14.01,2013-02-19 00:52:00,
2013-02-18 19:57:00,43.6,29.4,30.30,SSE,153,0.0,0.0,57,0.00,,---,0.00,VWS V14.01,2013-02-19 00:57:00,
2013-02-18 20:02:00,43.1,28.9,30.31,SSE,153,0.0,0.0,57,0.00,,---,0.00,VWS V14.01,2013-02-19 01:02:00,
2013-02-18 20:07:00,42.6,28.9,30.29,SSE,153,0.0,0.0,58,0.00,,---,0.00,VWS V14.01,2013-02-19 01:07:00,
2013-02-18 20:12:00,42.1,29.2,30.30,SSE,153,0.0,0.0,60,0.00,,---,0.00,VWS V14.01,2013-02-19 01:12:00,
2013-02-18 20:17:00,41.7,29.3,30.30,SSE,153,0.0,0.0,61,0.00,,---,0.00,VWS V14.01,2013-02-19 01:17:00,
2013-02-18 20:22:00,41.3,28.9,30.30,SSE,152,0.0,0.0,61,0.00,,---,0.00,VWS V14.01,2013-02-19 01:22:00,
2013-02-18 20:27:00,41.0,29.0,30.30,SSE,152,0.0,0.0,62,0.00,,---,0.00,VWS V14.01,2013-02-19 01:27:00,
2013-02-18 20:32:00,40.6,29.0,30.30,SSE,152,0.0,0.0,63,0.00,,---,0.00,VWS V14.01,2013-02-19 01:32:00,
2013-02-18 20:37:00,40.3,28.7,30.29,SSE,152,0.0,0.0,63,0.00,,---,0.00,VWS V14.01,2013-02-19 01:37:00,
2013-02-18 20:42:00,40.0,28.8,30.29,SSE,153,0.0,0.0,64,0.00,,---,0.00,VWS V14.01,2013-02-19 01:42:00,
2013-02-18 20:47:00,39.7,28.5,30.29,SSE,153,0.0,0.0,64,0.00,,---,0.00,VWS V14.01,2013-02-19 01:47:00,
2013-02-18 20:52:00,39.6,28.8,30.30,SSE,153,0.0,0.0,65,0.00,,---,0.00,VWS V14.01,2013-02-19 01:52:00,
2013-02-18 20:57:00,39.4,29.0,30.29,SSE,153,0.0,0.0,66,0.00,,---,0.00,VWS V14.01,2013-02-19 01:57:00,
2013-02-18 21:02:00,39.3,28.9,30.28,SSE,153,0.0,0.0,66,0.00,,---,0.00,VWS V14.01,2013-02-19 02:02:00,
2013-02-18 21:07:00,39.2,28.8,30.28,SSE,152,0.0,0.0,66,0.00,,---,0.00,VWS V14.01,2013-02-19 02:07:00,
2013-02-18 21:12:00,39.1,28.7,30.28,SSE,152,0.0,0.0,66,0.00,,---,0.00,VWS V14.01,2013-02-19 02:12:00,
2013-02-18 21:17:00,39.1,29.1,30.28,SSE,153,0.0,0.0,67,0.00,,---,0.00,VWS V14.01,2013-02-19 02:17:00,
2013-02-18 21:22:00,38.9,28.9,30.28,SSE,152,0.0,0.0,67,0.00,,---,0.00,VWS V14.01,2013-02-19 02:22:00,
2013-02-18 21:27:00,38.8,29.2,30.28,SSE,153,0.0,0.0,68,0.00,,---,0.00,VWS V14.01,2013-02-19 02:27:00,
2013-02-18 21:32:00,38.7,29.1,30.28,SSE,152,0.0,0.0,68,0.00,,---,0.00,VWS V14.01,2013-02-19 02:32:00,
2013-02-18 21:37:00,38.6,29.0,30.28,SSE,152,0.0,0.0,68,0.00,,---,0.00,VWS V14.01,2013-02-19 02:37:00,
2013-02-18 21:42:00,38.5,29.2,30.27,SSE,153,0.0,0.0,69,0.00,,---,0.00,VWS V14.01,2013-02-19 02:42:00,
2013-02-18 21:47:00,38.5,29.2,30.28,SSE,153,0.0,0.0,69,0.00,,---,0.00,VWS V14.01,2013-02-19 02:47:00,
2013-02-18 21:52:00,38.4,29.5,30.28,SSE,153,0.0,0.0,70,0.00,,---,0.00,VWS V14.01,2013-02-19 02:52:00,
2013-02-18 21:57:00,38.4,29.5,30.28,SSE,153,0.0,0.0,70,0.00,,---,0.00,VWS V14.01,2013-02-19 02:57:00,
2013-02-18 22:02:00,38.5,29.6,30.27,SSE,152,0.0,0.0,70,0.00,,---,0.00,VWS V14.01,2013-02-19 03:02:00,
2013-02-18 22:08:00,38.6,29.7,30.27,SSE,153,0.0,0.0,70,0.00,,---,0.00,VWS V14.01,2013-02-19 03:08:00,
2013-02-18 22:13:00,38.7,29.8,30.27,SSE,153,0.0,0.0,70,0.00,,---,0.00,VWS V14.01,2013-02-19 03:13:00,
2013-02-18 22:18:00,38.8,29.9,30.27,SSE,153,0.0,0.0,70,0.00,,---,0.00,VWS V14.01,2013-02-19 03:18:00,
2013-02-18 22:23:00,38.7,30.1,30.27,SSE,153,0.0,0.0,71,0.00,,---,0.00,VWS V14.01,2013-02-19 03:23:00,
2013-02-18 22:28:00,39.4,30.1,30.27,ESE,115,0.0,3.0,69,0.00,,---,0.00,VWS V14.01,2013-02-19 03:28:00,
2013-02-18 22:33:00,40.9,30.4,30.27,SE,134,0.0,1.0,66,0.00,,---,0.00,VWS V14.01,2013-02-19 03:33:00,
2013-02-18 22:38:00,41.3,30.4,30.27,SE,133,0.0,0.0,65,0.00,,---,0.00,VWS V14.01,2013-02-19 03:38:00,
2013-02-18 22:43:00,41.1,30.2,30.26,SE,134,0.0,0.0,65,0.00,,---,0.00,VWS V14.01,2013-02-19 03:43:00,
2013-02-18 22:48:00,40.7,30.2,30.26,SE,134,0.0,0.0,66,0.00,,---,0.00,VWS V14.01,2013-02-19 03:48:00,
2013-02-18 22:53:00,40.2,30.1,30.27,SE,133,0.0,0.0,67,0.00,,---,0.00,VWS V14.01,2013-02-19 03:53:00,
2013-02-18 22:58:00,39.8,29.8,30.26,SE,133,0.0,0.0,67,0.00,,---,0.00,VWS V14.01,2013-02-19 03:58:00,
2013-02-18 23:03:00,39.4,29.7,30.25,SE,134,0.0,0.0,68,0.00,,---,0.00,VWS V14.01,2013-02-19 04:03:00,
2013-02-18 23:08:00,39.2,29.5,30.25,SE,133,0.0,0.0,68,0.00,,---,0.00,VWS V14.01,2013-02-19 04:08:00,
2013-02-18 23:13:00,39.0,29.7,30.25,SE,134,0.0,0.0,69,0.00,,---,0.00,VWS V14.01,2013-02-19 04:13:00,
2013-02-18 23:18:00,38.9,30.0,30.25,SE,134,0.0,0.0,70,0.00,,---,0.00,VWS V14.01,2013-02-19 04:18:00,
2013-02-18 23:23:00,38.7,29.8,30.25,SE,133,0.0,0.0,70,0.00,,---,0.00,VWS V14.01,2013-02-19 04:23:00,
2013-02-18 23:28:00,38.6,30.0,30.25,SE,134,0.0,0.0,71,0.00,,---,0.00,VWS V14.01,2013-02-19 04:28:00,
2013-02-18 23:33:00,38.4,29.8,30.25,SE,133,0.0,0.0,71,0.00,,---,0.00,VWS V14.01,2013-02-19 04:33:00,
2013-02-18 23:38:00,38.2,29.6,30.25,SE,134,0.0,0.0,71,0.00,,---,0.00,VWS V14.01,2013-02-19 04:38:00,
2013-02-18 23:43:00,37.9,29.7,30.25,SE,133,0.0,0.0,72,0.00,,---,0.00,VWS V14.01,2013-02-19 04:43:00,
2013-02-18 23:49:00,37.7,29.2,30.25,SE,133,0.0,0.0,71,0.00,,---,0.00,VWS V14.01,2013-02-19 04:49:00,
2013-02-18 23:54:00,37.5,29.3,30.25,SE,133,0.0,0.0,72,0.00,,---,0.00,VWS V14.01,2013-02-19 04:54:00,
2013-02-18 23:59:00,37.2,29.4,30.25,SE,134,0.0,0.0,73,0.00,,---,0.00,VWS V14.01,2013-02-19 04:59:00,